Regional Weather Roundup
Issued by NWS

Home | Current Version | Previous Version | Graphics & Text | Print | Product List | Glossary Off
Versions: 1 2 3 4 5 6 7 8 9 10 11 12 13 14 15 16 17 18 19 20 21 22 23 24 25 26 27 28 29 30 31 32 33 34 35 36 37 38 39 40 41 42 43 44 45 46 47 48 49 50

000
ASUS43 KDMX 230901
RWRIA

WEATHER ROUNDUP FOR IOWA
NATIONAL WEATHER SERVICE DES MOINES IA
400 AM CDT SUN APR 23 2017

NOTE: "FAIR" INDICATES FEW OR NO CLOUDS BELOW 12,000 FEET WITH NO
SIGNIFICANT WEATHER AND/OR OBSTRUCTIONS TO VISIBILITY.

* - THESE STATIONS ARE NOT NWS STATIONS...THUS NOT UNDER NWS
QUALITY CONTROL.  THEY ALSO DO NOT REPORT WEATHER SUCH
AS PRECIPITATION OR FOG.

IAZ001>003-012>014-020>022-031>034-043>046-231000-
   NORTHWEST IOWA

CITY           SKY/WX    TMP DP  RH WIND       PRES   REMARKS
CARROLL *      MOCLDY    41  36  81 W3        30.15F
CHEROKEE *     CLEAR     37  37 100 CALM      30.15F
DENISON *      CLEAR     37  34  87 CALM      30.17S
LE MARS *      CLEAR     39  36  87 CALM      30.15F
ORANGE CITY *  CLEAR     45  34  65 CALM      30.14S
SHELDON *      CLEAR     41  34  75 SW7       30.12F
SIOUX CITY     CLEAR     39  33  79 CALM      30.15F
SPENCER        CLEAR     39  33  79 SW6       30.13F WCI  35
STORM LAKE *   CLEAR     48  32  53 SW7       30.15S
$$

IAZ055>058-069>071-079>083-090>094-231000-
   SOUTHWEST IOWA

CITY           SKY/WX    TMP DP  RH WIND       PRES   REMARKS
ATLANTIC *     CLEAR     36  34  93 CALM      30.17S
AUDUBON *      CLEAR     34  28  80 CALM      30.17S
CLARINDA *       N/A     34  34 100 CALM      30.20F
COUNCIL BLFS * CLEAR     46  32  57 S6        30.17R
CRESTON *      CLEAR     39  32  75 CALM      30.18F
HARLAN  *      CLEAR     37  37 100 CALM      30.20S
LAMONI         CLEAR     42  31  64 W6        30.17R
RED OAK *      CLEAR     37  34  87 CALM      30.18S
SHENANDOAH *   CLEAR     37  34  87 CALM      30.18F
$$

IAZ047>049-059>061-072>074-084-231000-
   CENTRAL IOWA

CITY           SKY/WX    TMP DP  RH WIND       PRES   REMARKS
AMES           CLEAR     42  33  70 CALM      30.15S
ANKENY *       CLEAR     37  36  93 CALM      30.17S
BOONE *        CLEAR     48  30  49 W7        30.15S
CHARITON *     CLEAR     41  32  70 W7        30.16S
DES MOINES     CLEAR     47  30  51 CALM      30.17R
GRINNELL*      CLEAR     40  28  61 SW3       30.17R
KNOXVILLE *    CLEAR     41  30  65 W6        30.15S
MARSHALLTOWN   CLEAR     41  33  73 W3        30.15R
NEWTON *       CLEAR     43  28  56 W6        30.15S
PELLA *        CLEAR     43  40  89 CALM      30.17S
PERRY *          N/A     40  32  70 W6        30.16S
$$

IAZ004>006-015-016-023>025-035-036-231000-
   NORTH CENTRAL IOWA

CITY           SKY/WX    TMP DP  RH WIND       PRES   REMARKS
ALGONA *       CLEAR     46  36  66 SW8       30.12F
CLARION *      CLEAR     41  36  81 S7        30.14F
ESTHERVILLE    CLEAR     42  35  76 W9        30.12S
FORT DODGE *   CLEAR     41  30  65 CALM      30.15F
MASON CITY     CLEAR     47  32  56 W7        30.13F
FOREST CITY *    N/A     37  32  81 CALM      30.13S
WEBSTER CITY * CLEAR     41  34  75 SW8       30.13F
IOWA FALLS *     N/A     44  33  64 SW9       30.16S
$$

IAZ007>011-017>019-026>030-037>042-050>054-066-231000-
   NORTHEAST IOWA

CITY           SKY/WX    TMP DP  RH WIND       PRES   REMARKS
CEDAR RAPIDS   CLEAR     41  30  65 CALM      30.14S
CHARLES CITY * CLEAR     46  32  57 SW6       30.13F
CLINTON *      CLEAR     40  33  76 CALM      30.15R
DECORAH *      CLEAR     50  30  46 SW5       30.11F
DUBUQUE        CLEAR     39  30  70 CALM      30.14R
MONTICELLO *   CLEAR     36  34  93 CALM      30.15R
OELWEIN *      CLEAR     45  34  65 SW3       30.14S
WATERLOO       CLEAR     37  32  82 CALM      30.14S
$$

IAZ064-065-067-068-078-231000-
   EAST CENTRAL IOWA

CITY           SKY/WX    TMP DP  RH WIND       PRES   REMARKS
DAVENPORT      CLEAR     37  31  78 CALM      30.15R
IOWA CITY      CLEAR     38  32  79 CALM      30.16S
MUSCATINE *    CLEAR     37  32  81 CALM      30.16R
QUAD CITIES    CLEAR     38  34  85 CALM      30.15R
$$

IAZ062-063-075>077-085>089-095>099-231000-
   SOUTHEAST IOWA

CITY           SKY/WX    TMP DP  RH WIND       PRES   REMARKS
BURLINGTON     CLEAR     39  35  86 N3        30.14S
FAIRFIELD *    CLEAR     36  30  80 CALM      30.14S
FORT MADISON * PTCLDY    39  34  81 CALM      30.15S
KEOKUK *       CLEAR     41  36  81 N5        30.13S
OSKALOOSA *      N/A     40  31  70 W6        30.16S
CENTERVILLE *    N/A     37  32  81 CALM      30.17S
OTTUMWA        CLEAR     38  32  79 W6        30.15S WCI  33
WASHINGTON *   CLEAR     39  32  75 CALM      30.16S
$$

ABBREVIATIONS USED IN REMARKS
   TC - TEMPERATURES IN CELSIUS
  WCI - WIND CHILL INDEX
   HX - HEAT INDEX
  VSB - VISIBILITY
$$




USA.gov is the U.S. government's official web portal to all federal, state and local government web resources and services.